TimeAKDT,TemperatureF,Dew PointF,Humidity,Sea Level PressureIn,VisibilityMPH,Wind Direction,Wind SpeedMPH,Gust SpeedMPH,PrecipitationIn,Events,Conditions,WindDirDegrees,DateUTC
12:53 AM,57.9,55.0,90,29.99,10.0,NNW,5.8,-,N/A,,Clear,330,2013-09-03 08:53:00
1:53 AM,55.9,53.1,90,29.99,10.0,ESE,3.5,-,N/A,,Clear,110,2013-09-03 09:53:00
2:53 AM,55.9,54.0,93,29.99,10.0,Calm,Calm,-,N/A,,Clear,0,2013-09-03 10:53:00
3:10 AM,55.0,53.1,93,29.99,10.0,Calm,Calm,-,N/A,,Scattered Clouds,0,2013-09-03 11:10:00
3:53 AM,55.0,53.1,93,29.98,10.0,Calm,Calm,-,N/A,,Scattered Clouds,0,2013-09-03 11:53:00
4:53 AM,54.0,52.0,93,29.97,10.0,Calm,Calm,-,N/A,,Clear,0,2013-09-03 12:53:00
5:41 AM,55.9,54.0,93,29.98,10.0,NW,5.8,-,N/A,,Mostly Cloudy,320,2013-09-03 13:41:00
5:53 AM,55.9,54.0,93,29.98,10.0,Calm,Calm,-,N/A,,Mostly Cloudy,0,2013-09-03 13:53:00
5:58 AM,55.9,54.0,93,29.98,10.0,NNW,3.5,-,N/A,,Overcast,340,2013-09-03 13:58:00
6:43 AM,55.0,54.0,96,29.98,7.0,Calm,Calm,-,N/A,,Scattered Clouds,0,2013-09-03 14:43:00
6:53 AM,55.0,53.1,93,29.98,4.0,Calm,Calm,-,N/A,,Scattered Clouds,0,2013-09-03 14:53:00
6:58 AM,55.0,53.1,93,29.98,1.0,ENE,3.5,-,N/A,,Mist,70,2013-09-03 14:58:00
7:31 AM,55.0,54.0,96,29.98,1.0,ESE,3.5,-,N/A,,Mostly Cloudy,110,2013-09-03 15:31:00
7:53 AM,55.9,55.0,97,29.98,5.0,East,3.5,-,N/A,,Scattered Clouds,80,2013-09-03 15:53:00
8:53 AM,57.0,54.0,89,29.99,9.0,NW,4.6,-,N/A,,Mostly Cloudy,310,2013-09-03 16:53:00
8:58 AM,57.0,54.0,89,29.99,10.0,NW,4.6,-,N/A,,Partly Cloudy,310,2013-09-03 16:58:00
9:53 AM,57.9,54.0,87,29.99,10.0,Calm,Calm,-,N/A,,Scattered Clouds,0,2013-09-03 17:53:00
10:53 AM,61.0,54.0,78,29.99,10.0,Calm,Calm,-,N/A,,Partly Cloudy,0,2013-09-03 18:53:00
11:53 AM,62.1,54.0,75,29.97,10.0,Calm,Calm,-,N/A,,Partly Cloudy,0,2013-09-03 19:53:00
12:53 PM,62.1,53.1,72,29.96,10.0,Calm,Calm,-,N/A,,Partly Cloudy,0,2013-09-03 20:53:00
1:53 PM,64.0,55.9,75,29.96,10.0,West,11.5,-,N/A,,Partly Cloudy,270,2013-09-03 21:53:00
2:53 PM,64.0,55.9,75,29.96,10.0,NW,5.8,-,N/A,,Scattered Clouds,310,2013-09-03 22:53:00
3:53 PM,63.0,54.0,72,29.97,10.0,West,8.1,-,N/A,,Mostly Cloudy,260,2013-09-03 23:53:00
4:53 PM,63.0,55.0,75,29.95,10.0,SW,10.4,-,N/A,,Mostly Cloudy,230,2013-09-04 00:53:00
5:53 PM,62.1,55.0,78,29.94,10.0,SSW,10.4,-,N/A,,Mostly Cloudy,210,2013-09-04 01:53:00
6:53 PM,62.1,53.1,72,29.93,10.0,SSW,8.1,-,N/A,,Mostly Cloudy,200,2013-09-04 02:53:00
7:53 PM,62.1,52.0,70,29.92,10.0,Calm,Calm,-,N/A,,Mostly Cloudy,0,2013-09-04 03:53:00
8:53 PM,61.0,54.0,78,29.93,10.0,Calm,Calm,-,N/A,,Overcast,0,2013-09-04 04:53:00
9:53 PM,60.1,55.9,86,29.92,10.0,ESE,4.6,-,N/A,,Overcast,120,2013-09-04 05:53:00
10:53 PM,61.0,53.1,75,29.91,10.0,SE,6.9,-,N/A,,Overcast,130,2013-09-04 06:53:00
11:53 PM,61.0,52.0,72,29.91,10.0,SE,9.2,-,N/A,,Overcast,130,2013-09-04 07:53:00